Location: Zapote
(9.9191°N, 84.0597°W)
Time: 04:39:03
(UTC-06:00)

Hubble Space Telescope - Pass Details

Date: 29 January 2021
Orbit: 536 x 539 km, 28.5° (Epoch: 28 February)

Event Time Altitude Azimuth Distance (km) Brightness Sun altitude
Rises 18:28:05 0° 305° (NW) 2,668 4.9 -12.1°
Reaches altitude 10° 18:30:23 10° 310° (NW) 1,779 3.9 -12.6°
Maximum altitude 18:34:24 51° 27° (NNE) 675 1.0 -13.6°
Enters shadow 18:36:47 22° 95° (E) 1,191 2.0 -14.2°
